EDT,Max TemperatureF,Mean TemperatureF,Min TemperatureF,Max Dew PointF,MeanDew PointF,Min DewpointF,Max Humidity, Mean Humidity, Min Humidity, Max Sea Level PressureIn, Mean Sea Level PressureIn, Min Sea Level PressureIn, Max VisibilityMiles, Mean VisibilityMiles, Min VisibilityMiles, Max Wind SpeedMPH, Mean Wind SpeedMPH, Max Gust SpeedMPH,PrecipitationIn, CloudCover, Events, WindDirDegrees
2012-9-1,80,76,72,73,72,71,93,89,85,30.05,30.01,29.91,10,8,0,15,7,18,1.16,6,Fog-Rain-Thunderstorm,126
2012-9-2,76,74,71,73,71,69,94,91,87,29.91,29.84,29.80,10,9,4,20,11,25,0.48,7,Rain,93
2012-9-3,86,78,70,72,70,69,93,77,61,29.90,29.86,29.82,10,9,3,14,7,16,0.00,5,,67
2012-9-4,88,77,66,73,69,66,100,77,53,29.91,29.87,29.83,10,5,0,10,2,15,0.00,2,Fog,324
2012-9-5,77,71,65,70,66,64,97,83,69,29.91,29.85,29.75,10,9,2,25,5,36,0.18,2,Rain-Thunderstorm,152
2012-9-6,86,74,62,71,65,61,100,74,48,29.94,29.90,29.85,10,9,3,13,3,16,0.00,1,,277
2012-9-7,73,68,62,67,64,59,93,83,73,29.92,29.79,29.71,10,7,1,24,5,35,1.00,5,Rain-Thunderstorm,332
2012-9-8,71,63,54,63,53,45,97,70,42,29.90,29.84,29.74,10,10,10,17,8,24,T,3,Rain,326
2012-9-9,72,61,50,55,52,49,93,73,53,30.14,29.99,29.85,10,10,10,17,6,24,T,3,,357
2012-9-10,76,62,47,55,50,47,100,71,41,30.23,30.17,30.13,10,9,2,9,2,17,0.00,0,,148
2012-9-11,79,65,51,54,52,50,96,68,39,30.22,30.17,30.12,10,10,10,13,4,21,0.00,0,,204
2012-9-12,82,68,54,58,54,51,93,65,37,30.23,30.18,30.14,10,10,10,14,4,21,0.00,1,,203
2012-9-13,79,71,62,63,59,56,90,68,45,30.25,30.21,30.16,10,10,10,14,4,20,T,6,,238
2012-9-14,71,61,51,58,52,44,93,66,38,30.34,30.29,30.23,10,10,4,17,6,24,0.31,4,Rain,30
2012-9-15,75,62,48,55,49,44,100,68,35,30.34,30.28,30.17,10,7,0,8,1,12,0.00,1,Fog,210
2012-9-16,76,62,48,53,49,45,96,65,33,30.17,30.10,30.01,10,10,2,12,2,15,0.00,0,,169
2012-9-17,75,63,51,63,58,50,100,77,54,30.01,29.88,29.74,10,9,6,13,2,15,0.07,4,,207
2012-9-18,64,53,41,63,50,33,97,66,34,30.06,29.82,29.72,10,9,2,21,11,29,0.01,5,Rain-Thunderstorm,329
2012-9-19,68,53,37,44,38,33,100,65,29,30.15,30.07,29.99,10,9,2,17,6,24,0.00,0,,218
2012-9-20,74,61,48,51,42,38,71,50,29,29.99,29.93,29.88,10,10,10,15,7,23,0.00,1,,258
2012-9-21,66,55,43,52,47,38,96,68,39,29.98,29.86,29.74,10,8,2,22,3,26,0.42,4,Rain-Thunderstorm,71
2012-9-22,57,48,39,50,43,31,100,69,38,30.19,29.93,29.80,10,6,0,28,8,43,0.00,3,Fog,272
2012-9-23,62,49,35,41,36,31,100,66,32,30.28,30.22,30.18,10,7,2,16,4,26,0.00,1,,315
2012-9-24,68,51,33,40,34,30,100,63,26,30.27,30.16,30.00,10,9,2,16,4,23,0.00,0,,226
2012-9-25,70,61,52,61,53,40,93,76,59,30.00,29.93,29.89,10,9,5,13,3,18,0.01,5,Rain,211
2012-9-26,67,62,57,64,61,52,100,88,75,30.09,30.00,29.89,10,8,0,12,4,16,0.29,7,Fog-Rain-Thunderstorm,260
2012-9-27,73,62,50,59,50,44,86,66,46,30.18,30.14,30.08,10,10,7,12,3,17,0.00,3,,33
2012-9-28,68,58,48,51,48,46,93,71,48,30.14,30.11,30.06,10,9,5,10,3,14,0.00,2,,8
2012-9-29,73,59,45,50,46,42,100,67,33,30.12,30.05,29.96,10,9,4,14,3,20,0.00,0,,335
2012-9-30,69,56,42,49,44,40,100,69,37,29.96,29.92,29.88,10,9,6,16,5,21,0.00,0,,51